Vertical_Velocity
-8 -4 -2 -3 -6 -7 -1 9 -0 -14 -18 -1 4 2 -5 -6 -3 1 2 -1 -2 -1 -1 -1 -2 -4 -7 -6 -5 -4 -4 -3 -2 -1 -0 0 1 1 0 0 0 0 -0 -0 -0 -0 -0 -0 -0 -1 -1 -1 -1 -1 -0 -1 -2 -2 -2 -3 -3 -2 -2 -1 -1 -1 -2 -2 -1 -0 0 0 -0 -0 0 4 6 7 6 6 6 6 6 4 3 2
-6 -2 5 -0 -9 -14 -11 5 8 1 -15 -12 -5 1 -1 -4 -3 -1 1 -0 -1 -2 -4 -5 -5 -5 -7 -6 -4 -3 -1 -1 -0 0 1 1 1 1 1 0 0 0 0 0 -0 0 0 0 -0 -1 -1 -1 -1 -1 -1 -1 -1 -1 -2 -2 -2 -2 -2 -1 -2 -2 -3 -2 -1 0 1 4 5 4 2 1 2 3 3 4 5 5 6 6 4 3
-12 -11 2 4 -3 -12 -16 -9 1 8 3 -6 -7 -3 -1 -4 -5 -3 -3 -4 -3 -3 -4 -6 -6 -5 -4 -3 -2 -1 1 2 1 1 1 0 0 0 0 1 1 0 0 -0 -0 -0 0 -0 -1 -1 -1 -1 -1 -1 -1 -1 -1 -1 -1 -1 -1 -1 -1 -1 -1 -1 -1 -1 1 3 4 4 4 4 2 2 1 -0 -2 -1 -0 2 5 6 6 5
-11 -17 -8 -0 -1 -4 -7 -11 -8 -2 5 -1 -4 -4 -2 -4 -6 -6 -5 -6 -6 -5 -3 -3 -3 -2 -2 -3 -2 -1 -0 0 0 -0 -1 -1 -0 -0 0 0 0 0 0 -0 -0 -0 -0 -1 -1 -1 -1 -1 -2 -2 -2 -2 -2 -1 -1 -1 -1 -1 -1 -1 -1 -1 -1 0 5 8 6 2 -1 -2 -3 -3 -3 -4 -4 -5 -5 -3 -1 -0 -1 -2
-5 -12 -14 -8 -6 -4 -1 -2 -4 -4 -2 -2 -5 -7 -7 -5 -5 -6 -7 -6 -6 -5 -3 -2 -1 -0 -1 -3 -3 -3 -2 -2 -2 -1 -1 -0 0 1 1 1 1 1 1 1 1 0 0 0 -0 -0 -1 -1 -1 -2 -2 -2 -2 -2 -2 -1 -1 -1 -0 -0 -1 -1 -2 -1 1 2 1 -1 -2 -4 -5 -6 -6 -6 -6 -6 -7 -7 -7 -7 -7 -7
-2 -5 -12 -13 -11 -8 -5 -4 -3 -4 -6 -6 -7 -8 -10 -8 -6 -5 -5 -4 -4 -4 -3 -2 -1 -1 -1 -3 -4 -4 -3 -2 -1 0 2 2 3 3 3 3 2 2 2 2 2 2 2 1 1 1 0 0 -0 -1 -1 -1 -1 -1 -1 -1 -1 -1 -1 -1 -1 -2 -3 -2 -2 -2 -3 -4 -5 -5 -5 -5 -5 -4 -4 -5 -6 -6 -7 -7 -7 -7
-4 1 -1 -10 -12 -9 -4 -6 -8 -9 -9 -8 -8 -9 -8 -6 -4 -2 -1 -0 -2 -4 -5 -5 -3 -1 -1 -2 -2 -2 -2 -0 2 3 4 4 4 4 3 3 2 2 2 2 2 1 1 1 1 0 0 1 0 -0 -1 -1 -1 -1 -1 -1 -2 -2 -3 -3 -4 -4 -4 -4 -5 -5 -6 -6 -5 -5 -3 -3 -3 -2 -2 -2 -3 -3 -4 -4 -4 -3
-12 -5 6 -1 -8 -12 -6 -2 -5 -10 -11 -8 -8 -9 -11 -7 -3 1 3 2 -0 -3 -6 -9 -7 -3 1 2 2 1 1 2 2 2 3 2 2 2 1 1 1 1 1 1 1 0 -0 -0 -0 0 0 0 -0 -0 -1 -1 -1 -1 -2 -3 -4 -4 -5 -5 -5 -5 -5 -5 -5 -5 -5 -4 -3 -3 -2 -2 -2 -2 -2 -2 -1 -1 -2 -2 -1 -1
-11 -11 -4 2 -3 -12 -17 -8 -3 -2 -7 -6 -6 -7 -9 -11 -9 -5 -0 2 2 1 -2 -7 -9 -7 0 6 7 5 2 2 2 1 -1 -2 -2 -1 -1 0 1 1 2 2 1 1 0 1 1 0 -0 -1 -1 -1 -1 -1 -1 -2 -2 -3 -3 -3 -3 -3 -3 -2 -3 -3 -3 -3 -3 -3 -3 -3 -3 -3 -3 -3 -2 -2 -2 -2 -2 -2 -2 -1
-2 -6 -12 -7 -6 -7 -15 -13 -7 -2 -0 -2 -2 -2 -1 -6 -11 -14 -13 -6 1 5 4 0 -3 -6 -5 2 6 6 2 0 1 2 1 0 0 1 1 2 2 2 3 2 2 2 2 2 2 1 0 -1 -1 -1 -2 -2 -1 -1 -1 -0 -0 -0 0 0 0 -0 -1 -1 -1 -1 -2 -2 -2 -3 -3 -3 -3 -3 -3 -3 -3 -3 -4 -3 -3 -2
-5 -6 -10 -11 -8 -5 -5 -7 -6 -3 1 -0 -2 -2 1 1 -3 -10 -18 -16 -8 -0 4 4 3 1 -4 -4 -2 1 0 -3 -3 -2 1 3 4 4 4 4 4 3 3 3 3 3 4 4 3 2 1 0 -0 -1 -1 -2 -2 -1 -1 -1 0 1 1 1 1 1 0 -0 -0 -1 -1 -1 -1 -2 -2 -2 -2 -3 -3 -3 -3 -3 -4 -3 -3 -2
-8 -9 -8 -5 -3 -3 -3 -4 -4 -2 1 0 -4 -7 -7 -0 3 0 -8 -13 -11 -6 -3 -2 1 5 5 -2 -6 -7 -5 -5 -5 -4 -2 1 3 4 2 1 1 2 2 2 2 4 5 4 3 3 2 2 1 0 -0 -1 -2 -2 -2 -2 -1 -1 -0 0 1 1 0 0 0 0 0 -0 -0 -0 -1 -1 -1 -2 -2 -3 -3 -3 -4 -3 -3 -1
-5 -3 -3 -2 -2 -1 -2 -3 -4 -4 -1 1 -1 -4 -8 -5 -0 2 -2 -6 -6 -3 -4 -8 -6 -1 6 4 -1 -6 -8 -8 -6 -3 -2 -0 2 2 -1 -3 -3 -2 -1 -2 -1 1 4 3 3 2 3 3 2 2 1 -0 -1 -2 -2 -2 -2 -2 -1 -1 -0 -0 -0 0 0 0 0 0 0 0 0 -0 -1 -1 -1 -1 -2 -3 -3 -3 -2 -1
-2 -1 -2 -3 -3 -2 -0 -1 -2 -4 -3 0 1 -1 -3 -3 -1 -0 -3 -6 -4 -1 -1 -6 -7 -5 1 2 -0 -3 -6 -8 -8 -6 -3 0 3 2 -2 -6 -6 -4 -1 -3 -3 -1 3 2 1 0 3 3 3 2 2 1 -0 -1 -1 -1 -1 -1 -2 -1 -1 -1 -1 -1 -1 -0 -0 -0 0 1 1 -0 -0 -1 -1 -1 -1 -2 -3 -2 -2 0
-3 -4 -5 -4 -3 -1 1 0 -2 -3 -3 0 1 0 -2 -2 -1 -0 -2 -7 -7 -5 -4 -7 -7 -4 4 7 5 0 -5 -7 -8 -8 -7 -2 4 7 2 -6 -7 -5 0 -2 -3 -1 3 2 -0 -1 -0 1 1 1 1 0 -0 -0 -1 -1 -1 -2 -2 -2 -2 -2 -2 -2 -1 -1 -1 -0 -0 -0 -0 -0 -0 -0 -1 -2 -2 -3 -4 -4 -3 -3
-3 -2 -4 -5 -5 -2 1 2 0 -3 -4 -1 1 1 -1 -4 -4 -2 -2 -5 -7 -8 -8 -11 -14 -12 -2 13 16 12 1 -6 -8 -8 -8 -6 2 9 8 -3 -8 -7 -1 0 -0 -1 1 1 0 -0 -1 -0 0 1 1 0 0 -0 -0 -1 -1 -2 -2 -3 -3 -3 -3 -3 -2 -2 -1 -1 -1 -0 -0 -1 -2 -2 -3 -4 -5 -6 -6 -4 -3 -3
-1 -1 -3 -4 -5 -4 -1 2 2 1 -0 -1 0 1 1 -1 -3 -3 -3 -5 -7 -7 -7 -6 -10 -15 -18 -6 8 16 10 -2 -8 -10 -8 -8 -1 7 10 2 -5 -8 -3 1 2 2 0 -1 -1 -1 -0 0 1 2 2 1 1 0 -0 -1 -1 -1 -2 -3 -3 -3 -3 -3 -2 -2 -2 -2 -1 -1 -2 -3 -4 -5 -5 -6 -6 -6 -5 -3 -1 -1
-1 -1 -2 -3 -4 -3 -2 -1 -0 0 1 -1 -1 -2 -0 1 0 -1 -4 -4 -5 -6 -7 -5 -3 -5 -11 -15 -6 6 12 2 -6 -11 -11 -9 -3 5 10 4 -2 -4 -2 1 2 2 1 -1 -0 0 1 1 2 2 2 2 1 0 -0 -1 -1 -1 -1 -1 -2 -2 -2 -2 -2 -2 -2 -2 -2 -2 -3 -3 -3 -3 -3 -3 -3 -3 -2 -1 0 1
-4 -0 1 -1 -3 -3 -2 0 1 0 -1 -2 -4 -5 -6 -4 -2 -2 -3 -2 -1 -1 -3 -5 -5 -5 -3 -8 -5 2 9 4 -2 -8 -10 -10 -5 2 10 4 -2 -4 -2 1 2 2 0 0 2 3 4 4 4 3 2 2 1 0 -0 -0 -0 -0 -0 -1 -1 -1 -2 -2 -3 -3 -3 -3 -3 -3 -3 -3 -2 -2 -2 -2 -3 -2 -2 -1 -0 0
-6 -2 4 3 -1 -4 -4 0 3 2 -0 -3 -4 -5 -7 -6 -4 -2 -1 0 1 2 2 -1 -4 -6 -5 -7 -6 -1 6 3 -2 -6 -7 -7 -3 2 8 2 -3 -6 -3 1 3 2 -0 0 2 4 6 5 5 4 2 2 1 0 -0 -0 -0 -1 -1 -2 -2 -3 -4 -4 -4 -4 -4 -4 -4 -4 -4 -3 -3 -3 -3 -3 -4 -4 -3 -2 -2 -1
-6 -3 4 5 2 -3 -6 -2 1 2 -0 -3 -4 -5 -5 -4 -3 -2 0 1 -0 -1 0 -1 -4 -5 -4 -6 -5 -1 5 4 -1 -6 -10 -8 -3 3 7 1 -4 -6 -4 1 3 3 1 -0 1 2 3 3 3 2 2 1 1 0 1 0 -0 -1 -2 -3 -4 -5 -5 -5 -5 -5 -4 -4 -4 -4 -4 -4 -4 -4 -4 -4 -4 -4 -3 -3 -3 -2
-3 -3 1 4 3 0 -4 -4 -3 -1 -0 -1 -2 -3 -4 -4 -5 -5 -4 -2 -3 -3 -3 -2 -2 -2 -2 -4 -3 0 7 6 3 -3 -9 -13 -9 -1 8 2 -3 -6 -5 -1 1 2 1 1 1 2 2 3 3 2 2 2 2 2 1 0 -1 -2 -3 -4 -4 -4 -4 -4 -4 -4 -4 -3 -3 -4 -4 -4 -4 -4 -4 -3 -3 -3 -3 -3 -2 -2
-1 -2 -1 1 2 -0 -3 -4 -4 -3 -0 1 0 -1 -2 -2 -4 -6 -7 -5 -4 -4 -4 -3 -2 -1 2 1 -0 1 5 6 3 -1 -5 -11 -12 -6 5 2 -3 -6 -5 -1 -1 -1 -1 2 3 4 4 4 4 4 3 3 2 1 0 -1 -2 -3 -3 -3 -3 -3 -4 -4 -3 -3 -3 -3 -3 -3 -3 -3 -4 -4 -4 -4 -3 -3 -3 -3 -2 -2
-1 -1 -1 -0 -0 -1 -2 -2 -2 -2 -1 -0 -1 -1 -1 -1 -2 -3 -3 -3 -3 -3 -3 -4 -4 -3 0 2 2 2 5 5 3 -1 -5 -10 -10 -6 1 0 -4 -7 -5 1 2 -0 -2 1 4 6 5 4 4 3 2 2 1 -0 -2 -2 -2 -2 -2 -2 -3 -3 -3 -3 -3 -3 -3 -3 -3 -3 -3 -3 -3 -3 -3 -3 -4 -4 -4 -4 -4 -3
0 -0 -1 -0 -0 -0 -0 -1 -1 -1 -1 -2 -3 -4 -4 -3 -2 -1 -0 1 1 -0 -2 -2 -3 -3 -2 0 1 2 5 6 5 2 -4 -9 -10 -6 3 2 -2 -7 -7 0 3 2 -1 0 3 4 4 3 3 3 2 1 -0 -1 -1 -1 -1 -1 -2 -2 -2 -2 -2 -3 -3 -3 -3 -3 -2 -2 -2 -2 -2 -2 -2 -2 -2 -3 -3 -4 -4 -4
2 2 1 1 1 1 1 1 1 1 0 -1 -3 -5 -6 -5 -4 -2 1 3 2 1 -2 -3 -3 -2 -0 0 -0 -0 3 5 6 4 -1 -8 -11 -9 1 3 -0 -5 -8 -3 2 2 -1 -1 1 3 4 4 3 3 2 0 -0 -1 -0 -0 -0 -0 -1 -1 -1 -2 -2 -2 -2 -2 -1 -1 -1 -1 -1 -1 -1 -1 -1 -1 -1 -1 -1 -1 -2 -4
3 2 2 1 1 1 1 1 1 1 0 0 0 -1 -2 -3 -3 -2 0 2 2 0 -2 -4 -6 -6 -3 -1 -1 -0 2 4 4 2 -1 -6 -10 -10 -3 1 -0 -4 -8 -5 -0 3 2 -0 0 2 3 3 3 2 1 -0 -1 -1 -0 -1 -1 -1 -1 -2 -2 -2 -2 -1 -1 -0 -0 0 1 1 1 1 1 1 0 0 0 1 0 0 -1 -3
2 1 1 0 0 -0 -0 -1 -0 -0 0 2 3 4 4 2 -0 -1 -1 1 1 0 -1 -3 -5 -7 -8 -5 -3 -0 3 4 2 -0 -3 -6 -8 -8 -3 -1 -1 -2 -6 -7 -2 3 6 3 1 -0 1 2 1 0 -0 -1 -1 -1 -1 -2 -2 -2 -2 -2 -2 -2 -1 -1 -1 -0 -0 -0 0 0 -0 -0 -0 0 -0 -0 -0 -0 -1 -1 -3 -5
2 2 1 1 0 -0 -1 -1 0 1 3 4 5 6 5 4 2 -0 -1 -0 -0 -1 -2 -2 -2 -4 -7 -6 -4 -1 4 6 4 -0 -4 -6 -7 -6 -1 -0 -0 -1 -4 -10 -8 -1 9 8 3 -1 -1 0 0 -0 -1 -1 -2 -2 -2 -1 -1 -0 -0 -1 -1 -1 -0 -0 -0 -0 -1 -1 -1 -1 -1 -1 -1 -1 -1 -0 -0 -1 -3 -4 -5 -6
2 2 2 2 2 1 0 1 2 3 5 6 6 5 4 3 2 1 -0 -0 -1 -2 -3 -3 -2 -3 -4 -8 -9 -7 -0 7 7 2 -3 -6 -7 -6 -2 -1 -0 0 -1 -10 -15 -11 2 11 10 5 0 0 0 -0 -1 -2 -3 -2 -1 1 2 2 2 1 0 0 1 1 1 1 0 0 0 0 0 0 0 0 1 1 1 -0 -3 -5 -6 -6
0 0 0 1 1 1 1 2 3 4 4 4 4 4 3 2 2 1 0 -0 -1 -2 -3 -3 -2 -1 -1 -4 -8 -10 -8 2 5 3 -2 -5 -7 -6 -2 -3 -2 -0 3 -3 -11 -18 -17 -1 9 12 6 3 1 0 -2 -2 -2 -1 1 2 3 3 2 1 1 1 2 2 2 2 1 1 1 1 1 1 1 2 2 3 3 1 -2 -4 -5 -6
-1 -1 -1 -0 0 1 1 2 2 2 2 2 2 2 2 2 1 1 -0 -1 -1 -1 -2 -2 -1 0 2 2 -1 -3 -6 -1 1 0 -2 -5 -7 -6 -1 -2 -2 -1 4 4 -0 -8 -18 -13 -3 7 9 5 2 -0 -1 -1 -0 0 1 2 3 3 2 2 1 1 1 2 2 2 3 2 2 1 1 1 1 1 1 2 3 2 -1 -4 -5 -6
-1 -0 -0 -0 -0 0 1 2 1 1 1 1 1 1 1 1 1 1 0 -0 -0 -0 -0 -1 -1 -1 0 1 1 1 0 0 -0 -1 -2 -4 -6 -6 -3 -1 -2 -2 1 4 4 1 -5 -10 -8 -2 4 5 2 -1 -1 1 2 2 1 1 1 2 2 1 0 -0 0 1 2 3 4 3 3 2 2 1 1 0 -0 1 2 1 -0 -3 -5 -5
0 0 0 -0 -0 1 2 2 1 1 0 1 1 1 0 1 1 1 1 1 1 2 2 2 1 -0 -1 -2 -2 -1 1 2 2 0 -1 -2 -4 -5 -3 -1 -1 -2 -2 0 2 2 0 -2 -3 -3 -1 3 3 1 -0 1 2 3 2 0 -0 -1 -0 -0 -0 -0 1 2 3 3 4 4 4 4 4 4 3 2 1 1 1 1 -0 -2 -4 -5
1 1 0 -0 -0 0 1 1 1 1 1 2 1 1 1 0 0 0 1 1 2 3 4 5 5 4 2 -2 -4 -5 -3 1 2 2 1 -0 -2 -4 -4 -1 -0 -1 -3 -2 -1 -0 -1 1 1 -0 -3 1 4 4 2 2 2 2 2 1 0 -0 -1 -1 -0 1 2 4 5 5 5 4 4 5 5 5 4 4 3 2 2 2 1 -1 -3 -4
0 0 0 -0 -1 -1 -0 1 1 1 2 2 2 2 1 1 1 1 1 1 2 3 4 5 7 8 7 4 -0 -3 -4 -2 0 2 2 2 -0 -2 -3 -1 -0 -0 -3 -3 -2 -1 -2 0 2 2 -0 -1 1 2 4 4 4 3 3 2 2 2 2 2 1 1 2 3 4 4 4 4 4 4 5 5 5 5 4 4 4 4 3 2 0 -2
-0 -0 -0 -1 -1 -1 -1 0 1 1 1 1 2 2 2 1 1 1 1 2 2 2 3 4 6 7 8 7 4 2 -1 -1 0 2 3 3 1 -0 -1 -1 1 1 -0 -3 -3 -2 -2 -1 1 3 3 0 -2 -3 -2 1 3 4 4 4 3 3 2 3 2 2 1 1 1 1 1 1 2 2 3 3 3 4 4 5 6 6 5 4 3 2
-0 -0 -0 -1 -1 -1 -1 -0 0 1 1 1 1 1 1 0 0 1 1 2 2 2 2 2 3 4 6 6 5 4 2 2 2 3 3 3 2 1 -0 -1 1 2 3 1 -1 -2 -3 -3 -2 -0 2 2 1 -1 -2 -2 -1 1 4 6 6 5 2 1 0 0 -0 -1 -1 -1 -0 0 0 0 1 1 1 1 2 4 6 7 7 5 5 5
-0 -0 -0 -1 -1 -1 -1 -1 -1 -0 0 0 0 -0 -0 0 1 1 2 1 1 1 1 1 1 2 3 4 4 4 4 3 3 3 3 2 2 1 -0 -1 0 2 4 3 2 0 -2 -3 -3 -3 -2 -1 0 1 1 -1 -2 -2 0 4 6 7 5 2 1 0 -0 -2 -3 -3 -1 1 2 1 0 0 -0 -1 -1 1 3 5 6 6 5 5
-0 -0 -0 -0 -0 -1 -1 -1 -1 -1 -1 -0 0 0 0 0 1 2 3 3 2 2 2 2 2 2 4 4 4 4 4 3 3 3 2 1 1 1 1 0 0 1 3 3 3 1 -2 -2 -2 -2 -2 -2 -1 -1 0 -1 -2 -3 -5 -4 -2 2 5 4 2 2 2 -0 -2 -4 -3 -1 1 2 2 2 1 0 -1 -2 -1 1 5 7 7 6
-1 -1 -1 -1 -0 0 1 0 -0 -1 -1 -1 -1 -0 -0 -1 -1 0 2 3 3 3 2 2 2 3 6 7 7 5 3 2 2 2 1 1 1 0 1 0 0 1 1 2 2 0 -3 -3 -3 -2 -1 -1 -0 1 2 1 -0 -2 -4 -5 -3 1 5 4 2 -1 -2 -2 -2 -3 -3 -3 -1 1 2 3 3 3 2 -1 -2 -2 1 4 7 8
-1 -1 -1 -1 -1 0 1 1 1 1 1 0 -0 -0 -0 -1 -1 -2 -1 -0 1 1 1 1 0 1 3 6 8 7 5 3 2 1 1 1 1 0 0 -0 -0 0 0 1 1 0 -2 -3 -3 -2 -1 -1 -0 1 1 2 2 2 -0 -2 -4 -3 -0 3 4 3 -1 -2 -3 -3 -2 -2 -1 1 3 4 4 5 4 2 1 -0 0 2 3 5
-1 -1 -1 -1 -1 -0 -0 0 1 1 1 1 1 1 1 1 -0 -1 -1 -1 -1 -0 0 0 -1 -1 -1 1 4 6 7 6 4 3 2 1 0 -0 -1 -1 -1 -0 -0 -1 -0 0 1 0 0 -0 -0 -0 -0 -0 -1 -1 1 2 2 -0 -4 -9 -15 -10 -3 2 4 2 0 -1 -1 0 2 3 5 5 4 4 4 4 4 4 5 6 6 4
-2 -1 -1 -1 -0 0 1 1 1 1 1 0 0 1 2 1 1 -0 -1 -1 -0 -0 0 -0 -1 -1 -1 -1 0 3 6 7 7 5 4 2 0 -1 -2 -1 -1 0 0 -0 -1 -1 0 2 3 4 3 2 1 -0 -1 -1 -1 0 2 2 1 -1 -4 -7 -8 -7 -3 -1 -0 0 1 2 2 3 5 5 4 4 3 3 4 5 7 8 9 8
-1 -1 -1 -0 -0 0 1 1 0 0 1 0 0 0 1 1 1 0 -1 -1 -1 0 1 -1 -2 -3 -3 -2 -1 1 4 6 7 6 5 4 3 1 -1 -1 -1 0 1 0 -1 -2 -2 -0 2 4 5 5 4 2 -0 -2 -2 -1 1 2 2 3 4 0 -3 -7 -8 -7 -4 -1 2 3 3 2 2 3 4 3 2 2 2 4 5 7 9 10
-1 -1 -1 -0 0 1 1 -0 -1 -1 -0 0 0 0 0 1 1 1 1 -0 -0 -0 1 0 -1 -2 -3 -3 -3 -2 0 2 4 4 4 5 4 3 0 -1 -1 -1 0 0 -0 -1 -1 -1 0 2 4 4 5 4 3 1 -1 -2 -1 -0 0 1 1 1 -1 -2 -5 -7 -6 -3 1 4 4 3 2 2 2 2 2 2 2 3 3 4 6 8
-1 -1 -1 -1 -0 0 1 -0 -1 -1 -1 -0 1 1 -0 -1 -0 0 1 0 0 0 0 0 0 0 -1 -2 -3 -4 -4 -3 -2 0 2 4 5 4 2 -0 -1 -1 -1 -0 -0 -0 -1 -1 -0 -0 0 1 2 3 4 3 1 -1 -2 -3 -3 -2 -1 -1 -0 -0 -1 -3 -4 -4 -4 -3 -1 1 2 3 2 1 1 2 3 3 3 3 4 6
-2 -2 -2 -1 -0 0 0 0 -1 -2 -2 -1 0 1 1 -0 -1 -1 -1 -1 -0 -0 -0 -1 -0 0 1 0 -1 -2 -3 -4 -3 -2 -1 2 4 4 3 2 1 -0 -1 -1 -1 -1 -1 -2 -2 -2 -1 -1 0 1 3 3 2 0 -2 -3 -4 -3 -2 -1 -0 -0 -1 0 0 -0 -1 -3 -3 -2 -2 -1 -0 -0 -0 1 2 3 4 5 5 6
-3 -3 -2 -1 -1 -0 -1 -1 -1 -2 -2 -1 -1 -0 1 1 1 0 -1 -1 -1 -1 -1 -1 -1 -1 -0 -0 -0 -1 -2 -2 -2 -1 -1 1 2 3 4 3 3 2 2 1 1 -0 -1 -2 -2 -2 -1 -0 -0 0 1 1 1 1 -1 -2 -2 -2 -2 -2 -1 -1 -2 0 2 3 4 3 2 1 -1 -1 -2 -2 -1 1 3 4 6 6 6 6
-1 -2 -1 -1 -1 -1 -1 -1 -2 -2 -1 -1 -1 -1 -1 -0 1 1 0 -0 -0 0 0 0 -1 -1 -2 -2 -2 -2 -3 -2 -2 -1 -1 -0 1 2 2 2 3 4 5 5 4 4 4 4 2 -0 -2 -2 -2 -2 -3 -3 -1 0 1 1 0 -0 -1 -1 -2 -3 -3 -0 2 3 3 2 1 0 -1 -0 -1 -1 1 6 9 9 9 7 6 7
-0 -0 -0 -1 -2 -2 -2 -1 -1 -1 0 0 -1 -2 -2 -2 -1 -1 -0 -0 -0 1 2 2 1 -0 -2 -2 -2 -2 -2 -2 -2 -2 -1 -1 0 1 1 1 1 1 3 4 5 6 7 8 8 6 2 -1 -3 -3 -4 -5 -4 -3 -1 0 1 1 1 -0 -1 -2 -1 1 2 2 1 0 -1 -1 -1 -0 -1 -1 2 13 15 13 8 6 7 8
Height
2903 2900 2897 2895 2893 2890 2887 2883 2881 2880 2877 2874 2871 2869 2867 2865 2863 2861 2859 2857 2855 2852 2850 2848 2846 2844 2842 2841 2840 2838 2837 2836 2835 2833 2832 2831 2829 2828 2826 2825 2823 2822 2821 2820 2819 2818 2817 2816 2815 2814 2813 2812 2812 2811 2810 2809 2809 2808 2807 2807 2807 2807 2807 2806 2806 2806 2806 2806 2806 2806 2807 2807 2808 2809 2810 2811 2812 2812 2813 2813 2814 2814 2815 2815 2815 2816
2899 2896 2892 2890 2888 2886 2883 2879 2877 2875 2872 2870 2867 2865 2863 2861 2859 2857 2854 2853 2851 2848 2846 2843 2842 2840 2838 2837 2836 2835 2833 2832 2831 2829 2827 2826 2824 2823 2822 2820 2819 2817 2816 2815 2814 2813 2812 2811 2810 2809 2808 2808 2807 2806 2806 2805 2804 2804 2803 2803 2802 2802 2802 2802 2802 2802 2802 2802 2802 2803 2805 2806 2806 2806 2805 2806 2806 2807 2807 2807 2808 2809 2810 2810 2810 2811
2895 2892 2888 2885 2883 2881 2879 2876 2874 2871 2869 2866 2864 2862 2859 2857 2854 2852 2850 2848 2846 2844 2842 2840 2838 2836 2835 2833 2832 2831 2829 2828 2826 2825 2823 2821 2820 2818 2817 2816 2814 2813 2812 2811 2810 2809 2808 2807 2806 2805 2804 2803 2802 2802 2801 2801 2800 2800 2799 2799 2798 2798 2798 2798 2798 2798 2799 2799 2800 2801 2802 2802 2801 2801 2801 2801 2801 2801 2801 2802 2802 2804 2804 2805 2805 2806
2890 2888 2884 2882 2879 2877 2874 2873 2871 2868 2866 2863 2860 2858 2855 2853 2850 2848 2846 2844 2842 2840 2838 2837 2835 2833 2831 2829 2828 2826 2825 2823 2822 2820 2818 2817 2815 2814 2813 2812 2810 2809 2808 2807 2806 2805 2804 2802 2802 2801 2800 2799 2798 2797 2797 2796 2796 2796 2795 2795 2795 2795 2795 2795 2795 2795 2795 2796 2797 2797 2797 2796 2795 2794 2794 2794 2794 2795 2795 2796 2796 2797 2798 2798 2798 2799
2886 2883 2881 2878 2875 2872 2870 2869 2867 2864 2862 2859 2856 2854 2851 2849 2846 2844 2842 2840 2838 2837 2835 2834 2832 2830 2827 2825 2823 2822 2820 2818 2817 2816 2814 2813 2812 2811 2809 2808 2807 2805 2804 2803 2802 2801 2800 2799 2798 2797 2796 2795 2794 2794 2793 2792 2792 2792 2791 2791 2791 2791 2791 2791 2790 2790 2790 2791 2792 2791 2790 2790 2789 2789 2788 2789 2789 2789 2790 2790 2790 2791 2791 2792 2792 2792
2881 2879 2877 2875 2872 2869 2867 2865 2863 2860 2857 2854 2852 2850 2848 2845 2843 2841 2839 2837 2836 2834 2832 2830 2828 2826 2823 2821 2819 2817 2816 2815 2813 2812 2811 2810 2809 2807 2806 2805 2803 2802 2801 2800 2798 2797 2796 2795 2794 2793 2792 2792 2791 2790 2789 2789 2788 2787 2787 2787 2787 2787 2787 2787 2786 2785 2785 2785 2785 2785 2784 2784 2784 2784 2784 2784 2784 2785 2785 2786 2786 2786 2786 2787 2787 2788
2877 2875 2873 2871 2868 2865 2863 2861 2859 2856 2853 2850 2848 2846 2844 2842 2841 2839 2837 2835 2833 2830 2828 2826 2824 2822 2820 2818 2816 2815 2813 2812 2811 2810 2808 2807 2806 2804 2802 2801 2800 2798 2797 2796 2795 2794 2792 2792 2791 2790 2789 2788 2787 2787 2786 2785 2784 2784 2784 2783 2783 2782 2782 2782 2781 2780 2780 2779 2779 2779 2779 2779 2779 2780 2780 2780 2780 2781 2781 2782 2782 2782 2782 2783 2783 2784
2874 2872 2869 2867 2864 2861 2859 2857 2855 2853 2851 2848 2846 2843 2841 2839 2838 2836 2834 2832 2829 2827 2824 2822 2820 2818 2817 2815 2814 2812 2810 2809 2807 2806 2805 2803 2802 2800 2799 2797 2796 2795 2794 2792 2791 2790 2789 2788 2787 2786 2785 2784 2783 2782 2782 2781 2781 2780 2780 2779 2778 2777 2776 2776 2775 2775 2775 2774 2774 2774 2774 2775 2775 2776 2776 2776 2776 2777 2777 2777 2778 2778 2779 2779 2780 2780
2871 2869 2866 2864 2861 2858 2855 2852 2851 2851 2849 2847 2844 2841 2838 2835 2833 2831 2829 2827 2826 2824 2822 2819 2817 2815 2814 2813 2812 2809 2807 2806 2804 2802 2801 2799 2797 2796 2795 2794 2793 2792 2791 2790 2788 2787 2786 2785 2784 2782 2781 2780 2779 2778 2777 2777 2776 2776 2775 2774 2773 2772 2772 2772 2772 2771 2771 2771 2771 2771 2771 2771 2771 2771 2771 2772 2772 2772 2772 2773 2773 2774 2774 2775 2775 2776
2868 2865 2862 2859 2857 2856 2853 2851 2849 2848 2847 2845 2842 2840 2837 2833 2830 2826 2824 2823 2822 2821 2820 2817 2815 2812 2811 2810 2808 2807 2804 2802 2801 2799 2798 2797 2795 2794 2792 2791 2790 2789 2788 2787 2786 2784 2783 2782 2781 2779 2778 2777 2776 2775 2774 2773 2772 2771 2771 2770 2770 2769 2769 2768 2768 2768 2767 2767 2767 2767 2767 2766 2766 2766 2767 2767 2767 2767 2767 2768 2769 2769 2770 2770 2771 2772
2864 2861 2859 2856 2855 2854 2852 2850 2848 2846 2844 2842 2839 2837 2835 2832 2829 2825 2821 2818 2818 2817 2817 2815 2813 2810 2807 2806 2804 2803 2801 2799 2797 2796 2795 2794 2793 2792 2790 2789 2787 2786 2785 2784 2782 2782 2781 2779 2778 2776 2775 2774 2772 2771 2770 2769 2768 2767 2767 2766 2766 2766 2765 2765 2764 2764 2763 2763 2762 2762 2762 2762 2762 2762 2762 2762 2762 2762 2763 2763 2764 2764 2765 2766 2766 2767
2861 2859 2857 2856 2855 2852 2850 2848 2846 2844 2842 2839 2836 2833 2831 2830 2828 2825 2820 2817 2815 2814 2813 2812 2810 2808 2806 2803 2801 2799 2797 2796 2794 2793 2792 2791 2790 2788 2787 2785 2784 2783 2782 2780 2779 2778 2777 2776 2775 2774 2772 2771 2769 2768 2767 2765 2764 2763 2763 2762 2762 2761 2761 2760 2760 2759 2759 2758 2758 2758 2757 2757 2757 2757 2757 2757 2757 2758 2758 2759 2759 2760 2761 2761 2762 2763
2860 2859 2858 2855 2853 2850 2848 2846 2843 2841 2839 2837 2834 2831 2828 2826 2825 2823 2820 2816 2814 2812 2810 2808 2806 2805 2803 2801 2799 2797 2795 2793 2791 2790 2789 2788 2787 2785 2783 2781 2780 2779 2778 2777 2776 2775 2774 2773 2772 2770 2769 2768 2767 2765 2764 2762 2761 2760 2759 2758 2757 2757 2756 2756 2755 2754 2754 2754 2753 2753 2753 2752 2752 2752 2753 2753 2753 2753 2754 2754 2755 2755 2756 2757 2758 2759
2860 2858 2855 2852 2850 2848 2846 2844 2841 2838 2836 2834 2832 2829 2827 2824 2822 2820 2817 2814 2812 2810 2808 2805 2803 2801 2800 2799 2797 2795 2792 2790 2788 2787 2786 2785 2784 2782 2779 2777 2776 2775 2774 2772 2772 2771 2770 2769 2767 2767 2766 2765 2763 2762 2761 2760 2758 2757 2756 2755 2754 2753 2752 2751 2751 2750 2749 2749 2749 2748 2748 2748 2748 2748 2748 2748 2749 2749 2750 2750 2750 2751 2752 2753 2754 2756
2858 2855 2852 2849 2847 2845 2844 2842 2839 2836 2834 2832 2830 2827 2825 2822 2820 2818 2815 2812 2810 2807 2806 2803 2801 2799 2798 2797 2796 2793 2791 2788 2786 2784 2783 2782 2781 2780 2777 2774 2772 2772 2771 2769 2768 2767 2766 2765 2763 2762 2762 2761 2760 2759 2757 2756 2755 2754 2753 2752 2751 2749 2748 2747 2747 2746 2746 2745 2745 2744 2744 2744 2744 2744 2744 2745 2746 2746 2746 2746 2747 2747 2748 2749 2750 2751
2855 2852 2850 2847 2844 2842 2841 2839 2837 2834 2832 2830 2828 2825 2823 2820 2818 2816 2813 2810 2807 2805 2803 2801 2798 2796 2796 2796 2795 2793 2790 2787 2784 2782 2780 2778 2778 2777 2775 2772 2769 2768 2767 2766 2765 2763 2762 2761 2760 2759 2758 2757 2756 2755 2754 2753 2752 2750 2749 2748 2747 2746 2745 2744 2743 2743 2742 2742 2741 2741 2740 2740 2740 2741 2741 2742 2742 2742 2742 2742 2742 2742 2743 2744 2745 2746
2852 2850 2847 2844 2842 2840 2838 2837 2835 2832 2830 2827 2825 2823 2821 2818 2816 2813 2811 2808 2806 2803 2801 2799 2797 2794 2792 2792 2792 2792 2789 2785 2782 2779 2777 2776 2775 2775 2773 2771 2767 2765 2764 2763 2762 2761 2759 2758 2757 2756 2755 2754 2753 2752 2751 2749 2748 2747 2746 2745 2743 2742 2742 2741 2740 2739 2738 2738 2737 2737 2737 2736 2736 2736 2737 2737 2736 2736 2736 2737 2737 2737 2738 2739 2740 2742
2850 2847 2845 2842 2840 2837 2836 2834 2832 2830 2828 2825 2823 2821 2818 2817 2814 2812 2809 2807 2805 2802 2800 2798 2796 2794 2791 2788 2788 2788 2787 2784 2780 2777 2774 2773 2772 2772 2771 2768 2765 2763 2762 2760 2759 2758 2757 2755 2754 2753 2752 2751 2750 2749 2747 2746 2745 2743 2742 2741 2740 2739 2738 2737 2737 2736 2735 2734 2734 2733 2733 2732 2732 2732 2732 2732 2732 2732 2732 2732 2733 2733 2734 2735 2736 2737
2846 2845 2843 2840 2838 2835 2834 2832 2831 2828 2826 2823 2820 2817 2815 2813 2812 2810 2808 2806 2804 2802 2799 2797 2794 2792 2790 2787 2786 2786 2785 2782 2778 2775 2772 2770 2769 2769 2768 2766 2763 2760 2759 2757 2756 2755 2753 2752 2751 2751 2749 2748 2747 2746 2744 2743 2741 2740 2739 2738 2737 2736 2735 2734 2733 2732 2731 2731 2730 2730 2729 2729 2728 2728 2728 2728 2728 2728 2728 2729 2729 2730 2731 2732 2732 2733
2843 2842 2842 2839 2836 2833 2832 2830 2829 2827 2824 2821 2818 2816 2813 2811 2810 2808 2806 2804 2802 2800 2798 2796 2793 2791 2789 2787 2785 2784 2783 2780 2777 2773 2770 2768 2767 2766 2765 2763 2760 2757 2756 2755 2754 2752 2751 2749 2748 2748 2747 2745 2744 2742 2741 2740 2738 2737 2736 2735 2734 2732 2731 2730 2729 2728 2728 2727 2727 2726 2726 2725 2725 2724 2724 2724 2724 2724 2724 2725 2725 2725 2726 2727 2728 2729
2842 2840 2839 2837 2835 2832 2829 2828 2826 2824 2822 2819 2817 2815 2812 2810 2808 2806 2804 2802 2800 2797 2796 2794 2791 2789 2788 2785 2783 2782 2782 2779 2775 2772 2768 2766 2764 2764 2763 2760 2757 2755 2753 2752 2751 2750 2748 2747 2746 2745 2743 2742 2741 2739 2738 2737 2736 2734 2733 2732 2731 2729 2728 2727 2726 2725 2724 2723 2723 2722 2722 2722 2722 2721 2721 2720 2720 2720 2720 2720 2721 2721 2722 2722 2723 2724
2840 2838 2837 2836 2833 2831 2828 2825 2824 2822 2821 2819 2817 2814 2811 2808 2806 2803 2802 2800 2797 2795 2793 2792 2790 2788 2787 2784 2782 2781 2780 2777 2774 2770 2767 2763 2761 2761 2760 2758 2755 2752 2751 2750 2749 2747 2746 2744 2743 2742 2741 2740 2738 2737 2736 2734 2733 2732 2731 2729 2728 2727 2725 2724 2723 2722 2721 2720 2720 2719 2719 2718 2718 2718 2717 2717 2717 2717 2717 2717 2717 2718 2718 2718 2719 2720
2838 2836 2835 2833 2831 2829 2826 2824 2822 2821 2819 2817 2815 2812 2810 2807 2805 2802 2800 2798 2796 2794 2792 2790 2788 2787 2785 2783 2782 2780 2779 2776 2773 2769 2766 2762 2759 2758 2757 2755 2753 2750 2749 2747 2746 2744 2743 2742 2741 2740 2738 2737 2736 2734 2733 2732 2731 2729 2728 2727 2725 2723 2722 2721 2720 2718 2718 2717 2717 2716 2716 2715 2715 2714 2714 2714 2714 2714 2714 2714 2714 2714 2715 2715 2715 2716
2837 2835 2833 2831 2829 2827 2826 2823 2822 2820 2817 2816 2813 2811 2808 2806 2803 2801 2799 2797 2795 2792 2790 2787 2786 2784 2783 2782 2781 2779 2777 2775 2772 2768 2764 2760 2757 2755 2755 2753 2750 2748 2747 2745 2744 2742 2740 2739 2738 2737 2736 2734 2733 2732 2731 2729 2728 2727 2725 2723 2722 2720 2719 2718 2717 2716 2715 2714 2714 2713 2712 2712 2712 2711 2711 2711 2711 2711 2711 2711 2711 2711 2711 2712 2712 2712
2835 2833 2832 2830 2828 2826 2824 2822 2820 2818 2816 2814 2812 2809 2807 2804 2802 2800 2798 2796 2794 2792 2789 2787 2784 2783 2782 2780 2779 2777 2776 2773 2771 2767 2763 2759 2755 2753 2753 2751 2748 2746 2744 2743 2742 2740 2738 2737 2736 2734 2733 2732 2730 2729 2728 2727 2725 2724 2722 2721 2719 2717 2716 2715 2714 2714 2713 2712 2712 2711 2710 2710 2709 2708 2708 2707 2707 2707 2707 2707 2707 2707 2707 2707 2707 2707
2834 2832 2830 2828 2827 2825 2823 2821 2819 2817 2815 2813 2810 2808 2805 2803 2801 2799 2797 2796 2793 2791 2788 2785 2783 2781 2780 2778 2777 2775 2773 2771 2769 2765 2762 2757 2753 2751 2751 2749 2747 2744 2742 2740 2739 2737 2735 2733 2732 2732 2730 2729 2728 2727 2726 2724 2723 2721 2720 2718 2717 2716 2715 2714 2713 2712 2712 2711 2710 2709 2708 2708 2707 2706 2706 2705 2704 2704 2703 2703 2703 2703 2703 2703 2703 2703
2832 2831 2829 2827 2825 2823 2822 2820 2818 2816 2814 2812 2810 2807 2805 2802 2800 2798 2797 2795 2792 2790 2787 2784 2781 2779 2777 2776 2774 2772 2771 2769 2766 2763 2759 2756 2752 2749 2748 2747 2745 2742 2740 2738 2737 2735 2733 2731 2730 2729 2728 2727 2725 2724 2723 2722 2720 2719 2717 2717 2716 2715 2714 2713 2712 2711 2711 2710 2709 2708 2707 2706 2705 2704 2703 2703 2702 2701 2701 2700 2700 2700 2699 2699 2698 2697
2831 2829 2827 2825 2823 2822 2820 2818 2816 2815 2813 2811 2810 2807 2805 2803 2800 2797 2795 2793 2791 2789 2786 2783 2780 2777 2775 2773 2772 2770 2768 2766 2764 2761 2757 2754 2751 2748 2747 2745 2743 2741 2738 2735 2734 2732 2731 2729 2727 2726 2725 2724 2723 2722 2721 2720 2718 2717 2716 2716 2715 2714 2713 2712 2711 2710 2709 2708 2707 2706 2705 2704 2703 2702 2702 2701 2700 2699 2698 2698 2697 2697 2696 2695 2694 2693
2829 2827 2826 2824 2822 2820 2818 2817 2815 2814 2812 2811 2809 2807 2805 2802 2800 2797 2794 2792 2790 2787 2784 2782 2779 2777 2774 2771 2769 2768 2767 2765 2762 2759 2756 2752 2749 2747 2746 2744 2742 2740 2737 2733 2730 2729 2728 2727 2726 2724 2723 2722 2721 2720 2719 2718 2717 2716 2716 2715 2714 2713 2712 2711 2710 2709 2708 2707 2706 2705 2704 2703 2702 2701 2700 2699 2698 2697 2696 2696 2695 2694 2692 2691 2690 2689
2827 2825 2824 2822 2821 2819 2817 2816 2814 2813 2812 2810 2808 2806 2803 2801 2798 2796 2793 2791 2788 2786 2783 2780 2778 2776 2773 2769 2767 2765 2764 2763 2761 2758 2755 2751 2748 2746 2744 2742 2741 2739 2736 2732 2727 2725 2725 2725 2724 2723 2721 2720 2720 2719 2717 2717 2716 2716 2715 2715 2714 2713 2712 2711 2709 2708 2707 2706 2705 2704 2702 2702 2700 2699 2698 2697 2696 2695 2694 2693 2692 2691 2689 2688 2687 2686
2825 2823 2822 2821 2819 2817 2816 2814 2813 2811 2810 2808 2806 2804 2802 2799 2796 2794 2792 2789 2787 2784 2782 2779 2777 2775 2772 2769 2766 2763 2761 2761 2760 2757 2753 2750 2747 2745 2743 2741 2739 2737 2736 2732 2728 2724 2721 2721 2722 2722 2721 2719 2718 2717 2717 2716 2715 2715 2714 2713 2713 2712 2711 2710 2708 2707 2706 2705 2704 2703 2701 2700 2699 2697 2696 2695 2693 2692 2692 2691 2689 2688 2686 2685 2683 2682
2823 2822 2820 2818 2817 2816 2814 2813 2811 2810 2808 2806 2804 2802 2799 2797 2795 2792 2790 2788 2786 2783 2781 2778 2776 2774 2772 2769 2766 2763 2760 2759 2757 2755 2752 2749 2746 2743 2742 2740 2738 2736 2734 2733 2730 2726 2722 2720 2719 2720 2720 2719 2717 2717 2716 2716 2715 2714 2713 2712 2712 2711 2710 2708 2707 2706 2705 2704 2703 2702 2700 2698 2697 2695 2694 2692 2691 2690 2689 2688 2687 2685 2683 2682 2680 2679
2822 2820 2818 2817 2816 2814 2813 2811 2809 2807 2806 2803 2802 2799 2797 2795 2793 2791 2789 2787 2785 2783 2781 2778 2775 2773 2770 2768 2766 2763 2760 2758 2756 2754 2751 2748 2745 2742 2741 2739 2737 2734 2733 2731 2730 2727 2725 2722 2720 2719 2719 2718 2717 2717 2716 2716 2715 2714 2713 2712 2711 2710 2709 2707 2706 2705 2704 2703 2701 2700 2698 2697 2695 2693 2692 2690 2689 2687 2686 2685 2684 2682 2681 2679 2677 2676
2820 2819 2817 2816 2814 2813 2811 2810 2808 2806 2804 2802 2800 2797 2796 2793 2792 2790 2788 2786 2784 2783 2781 2778 2775 2772 2769 2766 2764 2762 2760 2758 2756 2753 2751 2748 2745 2742 2740 2738 2736 2734 2731 2730 2728 2727 2725 2723 2721 2720 2719 2718 2718 2717 2716 2715 2715 2714 2712 2711 2710 2709 2707 2707 2705 2704 2703 2701 2700 2698 2697 2695 2693 2692 2690 2688 2687 2685 2684 2682 2681 2680 2678 2676 2674 2673
2819 2817 2816 2814 2813 2811 2809 2807 2806 2804 2802 2800 2798 2796 2794 2792 2790 2789 2787 2785 2784 2782 2780 2778 2776 2773 2769 2766 2762 2760 2758 2757 2755 2753 2750 2748 2745 2742 2739 2737 2736 2734 2731 2729 2727 2726 2724 2723 2722 2721 2719 2719 2718 2718 2717 2715 2714 2713 2712 2711 2709 2708 2707 2706 2704 2703 2701 2700 2698 2696 2694 2692 2691 2689 2688 2686 2684 2683 2682 2680 2678 2677 2676 2674 2672 2670
2817 2816 2814 2812 2811 2809 2807 2806 2804 2802 2800 2798 2797 2795 2793 2791 2789 2787 2786 2784 2783 2781 2780 2778 2776 2773 2770 2767 2763 2760 2757 2756 2754 2752 2750 2748 2745 2742 2739 2737 2736 2734 2732 2729 2727 2726 2724 2723 2722 2721 2720 2719 2718 2717 2717 2716 2714 2713 2712 2711 2709 2708 2707 2705 2703 2701 2699 2697 2696 2694 2692 2690 2688 2686 2685 2683 2682 2680 2678 2677 2675 2674 2672 2671 2669 2667
2816 2814 2813 2811 2809 2807 2805 2803 2802 2800 2798 2796 2795 2793 2791 2790 2788 2786 2785 2783 2782 2780 2778 2777 2775 2773 2771 2767 2764 2761 2757 2755 2753 2752 2750 2747 2745 2742 2740 2737 2736 2734 2732 2730 2728 2726 2725 2724 2722 2722 2721 2720 2718 2717 2716 2715 2714 2713 2712 2710 2709 2707 2706 2704 2702 2700 2697 2695 2693 2691 2689 2687 2685 2683 2682 2680 2678 2677 2675 2673 2672 2670 2669 2667 2666 2664
2815 2813 2811 2809 2807 2805 2803 2802 2800 2798 2796 2795 2793 2791 2790 2788 2787 2785 2783 2782 2780 2778 2777 2775 2774 2772 2770 2767 2764 2761 2758 2756 2753 2751 2749 2747 2745 2742 2740 2737 2735 2734 2732 2730 2728 2727 2726 2724 2723 2722 2721 2720 2719 2717 2716 2715 2713 2712 2711 2710 2708 2707 2704 2702 2700 2698 2696 2693 2691 2689 2687 2685 2682 2680 2679 2677 2675 2673 2671 2670 2668 2667 2665 2663 2662 2661
2813 2812 2810 2808 2806 2804 2802 2800 2798 2797 2795 2793 2792 2790 2788 2787 2786 2784 2782 2781 2779 2777 2776 2774 2772 2771 2768 2766 2764 2761 2758 2756 2753 2751 2749 2747 2745 2742 2740 2737 2735 2733 2732 2731 2729 2727 2726 2725 2724 2722 2721 2720 2718 2717 2716 2715 2713 2712 2710 2709 2708 2706 2704 2701 2699 2697 2694 2692 2690 2687 2685 2682 2680 2678 2676 2674 2672 2670 2668 2666 2665 2663 2662 2660 2658 2657
2812 2810 2808 2806 2804 2802 2801 2799 2797 2795 2794 2792 2791 2789 2787 2786 2784 2783 2782 2780 2778 2776 2774 2772 2771 2769 2768 2766 2763 2761 2758 2755 2753 2750 2748 2746 2744 2742 2739 2737 2735 2733 2732 2730 2729 2728 2727 2726 2724 2722 2721 2720 2718 2717 2716 2714 2713 2711 2709 2707 2706 2704 2702 2700 2698 2695 2693 2690 2688 2685 2682 2680 2677 2676 2673 2672 2669 2667 2665 2663 2662 2660 2658 2657 2655 2653
2810 2808 2807 2805 2803 2802 2800 2798 2796 2795 2793 2792 2790 2788 2787 2785 2783 2782 2780 2778 2777 2775 2773 2771 2770 2768 2767 2765 2763 2760 2757 2755 2752 2750 2747 2745 2743 2741 2739 2737 2735 2733 2732 2730 2729 2728 2727 2726 2724 2723 2722 2720 2718 2717 2716 2714 2712 2711 2708 2706 2704 2702 2701 2699 2696 2694 2691 2689 2686 2684 2681 2678 2675 2673 2671 2669 2667 2665 2663 2661 2659 2657 2655 2654 2652 2650
2809 2807 2805 2803 2802 2800 2798 2797 2796 2794 2792 2791 2789 2787 2786 2784 2782 2780 2778 2777 2775 2773 2771 2770 2768 2767 2765 2764 2762 2760 2757 2754 2752 2749 2747 2745 2742 2741 2739 2737 2735 2733 2732 2731 2729 2728 2727 2726 2725 2723 2722 2720 2718 2717 2715 2714 2712 2711 2708 2706 2703 2701 2699 2697 2695 2693 2690 2687 2685 2682 2679 2676 2673 2671 2669 2667 2665 2663 2662 2660 2657 2655 2653 2651 2649 2647
2807 2806 2804 2802 2800 2799 2797 2796 2795 2793 2792 2791 2789 2787 2786 2783 2781 2779 2777 2775 2773 2772 2770 2768 2767 2765 2763 2762 2760 2758 2757 2754 2752 2749 2747 2744 2742 2740 2738 2737 2735 2733 2732 2731 2730 2729 2728 2727 2725 2724 2722 2720 2718 2717 2715 2713 2712 2710 2708 2706 2703 2700 2697 2695 2693 2692 2689 2687 2684 2681 2678 2675 2672 2669 2667 2665 2663 2662 2660 2658 2656 2654 2652 2649 2647 2644
2806 2804 2802 2801 2799 2798 2797 2796 2794 2793 2792 2790 2788 2787 2785 2783 2781 2779 2777 2775 2772 2771 2769 2767 2765 2764 2762 2760 2759 2757 2756 2754 2752 2749 2747 2744 2742 2740 2738 2737 2736 2734 2733 2732 2730 2729 2728 2727 2726 2724 2722 2721 2719 2717 2715 2713 2712 2710 2708 2706 2704 2701 2698 2695 2692 2690 2687 2685 2682 2679 2676 2673 2670 2667 2666 2664 2662 2660 2658 2656 2654 2652 2651 2648 2646 2643
2805 2803 2802 2800 2799 2797 2797 2795 2794 2792 2791 2789 2788 2786 2784 2782 2781 2778 2776 2774 2772 2770 2768 2766 2764 2762 2761 2759 2757 2756 2754 2753 2751 2749 2747 2745 2742 2741 2739 2737 2736 2734 2733 2732 2731 2730 2728 2727 2726 2724 2723 2721 2719 2717 2715 2713 2711 2709 2708 2706 2704 2702 2699 2696 2693 2689 2686 2683 2681 2677 2674 2672 2669 2666 2664 2662 2660 2658 2657 2655 2653 2651 2649 2647 2645 2642
2804 2802 2801 2800 2798 2797 2796 2795 2793 2792 2790 2789 2787 2786 2784 2782 2780 2778 2776 2773 2771 2769 2767 2765 2764 2762 2760 2757 2756 2754 2753 2751 2750 2748 2746 2744 2742 2741 2739 2738 2736 2735 2733 2732 2731 2730 2729 2727 2726 2724 2723 2721 2720 2718 2716 2713 2711 2709 2707 2705 2703 2701 2698 2696 2693 2690 2687 2683 2680 2676 2673 2671 2668 2666 2663 2661 2659 2657 2655 2654 2652 2650 2648 2646 2645 2643
2803 2802 2800 2799 2798 2797 2796 2794 2793 2791 2790 2788 2787 2785 2783 2781 2779 2777 2775 2773 2771 2769 2767 2765 2763 2762 2759 2757 2755 2753 2751 2750 2748 2747 2745 2744 2742 2741 2739 2738 2737 2735 2734 2732 2731 2730 2728 2727 2725 2724 2722 2721 2719 2718 2716 2714 2712 2709 2707 2705 2702 2700 2697 2695 2692 2690 2687 2683 2680 2676 2672 2669 2667 2664 2662 2660 2658 2656 2654 2653 2651 2649 2647 2646 2644 2643
2802 2801 2800 2799 2798 2797 2795 2794 2792 2791 2789 2788 2786 2785 2783 2781 2778 2776 2774 2772 2770 2768 2766 2764 2762 2761 2759 2757 2755 2753 2751 2749 2747 2746 2745 2743 2742 2741 2739 2738 2737 2736 2734 2733 2731 2730 2729 2727 2726 2724 2722 2721 2719 2717 2716 2714 2712 2709 2707 2705 2702 2700 2697 2695 2692 2689 2686 2683 2680 2676 2672 2669 2667 2663 2661 2659 2657 2655 2653 2652 2650 2648 2647 2646 2645 2644
2802 2801 2799 2798 2797 2796 2795 2793 2792 2790 2789 2787 2786 2784 2782 2780 2778 2776 2774 2771 2769 2767 2765 2763 2762 2760 2758 2757 2755 2753 2751 2749 2747 2746 2744 2743 2742 2740 2739 2738 2737 2736 2735 2733 2732 2730 2729 2727 2726 2724 2722 2721 2719 2717 2715 2713 2712 2710 2707 2705 2702 2700 2697 2695 2692 2689 2686 2682 2679 2676 2673 2670 2667 2664 2661 2658 2656 2654 2652 2651 2650 2648 2647 2647 2646 2645
2802 2800 2799 2798 2797 2796 2794 2792 2791 2790 2788 2787 2785 2783 2782 2780 2778 2776 2773 2771 2769 2767 2765 2763 2761 2759 2757 2756 2754 2752 2751 2749 2747 2746 2744 2743 2741 2740 2739 2738 2737 2736 2735 2734 2732 2731 2730 2728 2726 2724 2722 2720 2718 2716 2714 2713 2711 2709 2707 2705 2703 2700 2697 2695 2692 2689 2686 2682 2679 2676 2672 2670 2667 2664 2662 2659 2656 2654 2652 2651 2650 2649 2649 2648 2647 2646
2801 2800 2799 2798 2796 2795 2793 2792 2791 2789 2788 2786 2784 2782 2781 2779 2777 2775 2772 2771 2769 2767 2765 2763 2761 2759 2757 2755 2754 2752 2751 2749 2747 2746 2744 2743 2742 2740 2739 2738 2737 2736 2735 2734 2732 2732 2730 2729 2727 2725 2723 2720 2718 2716 2714 2712 2711 2709 2707 2705 2703 2701 2698 2695 2692 2689 2686 2683 2679 2676 2673 2670 2667 2664 2662 2659 2657 2654 2653 2652 2652 2651 2650 2649 2648 2647